GW6783 Weather Reports


time (UTC)temp
C
wind
direction
speed
KPH
gust
KPH
rain 1hr
cm
rain 24hr
cm
rain mn
cm
humidity
%
barometer
mb
20260506231551 6 14 6.4 12.9 0.03 1.85 1.65 96 1006.5
20260506231043 6 13 4.8 12.9 0.00 1.83 1.63 96 1006.4
20260506230546 6 13 4.8 11.3 0.00 1.83 1.63 96 1006.5
20260506230054 6 11 3.2 11.3 0.00 1.83 1.63 96 1006.6
20260506225546 7 11 4.8 11.3 0.00 1.83 1.63 96 1006.4
20260506225045 7 11 3.2 11.3 0.00 1.83 1.63 96 1006.3
20260506224554 7 12 3.2 11.3 0.00 1.83 1.63 96 1006.3
20260506224046 7 12 3.2 11.3 0.00 1.83 1.63 96 1006.5
20260506223545 6 10 4.8 11.3 0.00 1.83 1.63 96 1006.2
20260506223059 7 355 4.8 8.0 0.00 1.83 1.63 97 1006.2
20260506222545 7 355 3.2 8.0 0.00 1.83 1.63 97 1006.4
20260506222045 7 355 3.2 9.7 0.00 1.83 1.63 97 1006.4
20260506221548 7 355 3.2 12.9 0.00 1.83 1.63 97 1006.3
20260506221047 6 355 4.8 12.9 0.00 1.83 1.63 97 1006.4
20260506220545 6 355 4.8 12.9 0.00 1.83 1.63 97 1006.4
20260506220049 7 352 3.2 16.1 0.00 1.83 1.63 97 1006.6
20260506215546 7 352 3.2 16.1 0.00 1.83 1.63 97 1006.6
20260506215049 7 352 4.8 16.1 0.00 1.83 1.63 97 1006.5
20260506214548 7 0 3.2 12.9 0.03 1.83 1.63 97 1006.5
20260506214046 6 355 4.8 16.1 0.03 1.83 1.63 97 1006.4
20260506213547 6 355 4.8 16.1 0.03 1.83 1.63 97 1006.4
20260506213046 6 342 4.8 16.1 0.05 1.83 1.63 97 1006.4
20260506212545 6 344 4.8 16.1 0.05 1.83 1.63 97 1006.3
20260506212045 6 344 4.8 16.1 0.05 1.83 1.63 97 1006.1
20260506211545 6 344 4.8 14.5 0.05 1.83 1.63 97 1006.3
20260506211043 6 345 4.8 14.5 0.05 1.83 1.63 97 1006.2
20260506210544 6 346 4.8 14.5 0.05 1.83 1.63 97 1006.0
20260506210050 6 348 4.8 16.1 0.05 1.83 1.63 97 1006.0
20260506205544 6 348 4.8 19.3 0.05 1.93 1.63 97 1006.0
20260506205045 6 349 6.4 24.1 0.05 1.93 1.63 97 1006.0
20260506204555 6 341 8.0 24.1 0.03 1.91 1.60 97 1006.1
20260506204046 6 337 4.8 16.1 0.03 1.91 1.60 97 1006.2
20260506203544 6 337 3.2 16.1 0.03 1.91 1.60 97 1006.2
20260506203053 6 338 4.8 16.1 0.00 1.88 1.57 97 1006.1
20260506202548 6 338 4.8 14.5 0.00 1.88 1.57 97 1006.3
20260506202045 6 342 4.8 14.5 0.00 1.88 1.57 97 1006.2
20260506201557 6 330 4.8 12.9 0.03 1.88 1.57 97 1006.3
20260506201043 6 328 3.2 12.9 0.03 1.88 1.57 97 1006.2
20260506200547 6 331 4.8 16.1 0.03 1.88 1.57 97 1006.1
20260506200105 6 330 4.8 16.1 0.05 1.88 1.57 97 1006.2
20260506195547 6 326 3.2 12.9 0.08 1.88 1.57 97 1006.2
20260506195045 6 327 3.2 12.9 0.08 1.88 1.57 97 1006.1
20260506194557 6 328 3.2 14.5 0.10 1.88 1.57 97 1006.0
20260506194044 6 325 4.8 14.5 0.10 1.88 1.57 96 1006.1
20260506193545 6 323 4.8 16.1 0.10 1.88 1.57 97 1006.0
20260506193048 6 323 4.8 19.3 0.10 1.88 1.57 96 1006.1
20260506192545 6 325 8.0 19.3 0.10 1.88 1.57 96 1005.9
20260506192048 6 342 4.8 14.5 0.10 1.88 1.57 97 1006.0
20260506191547 7 342 4.8 14.5 0.10 1.85 1.55 97 1006.0
20260506191046 7 343 3.2 9.7 0.10 1.85 1.55 97 1005.9
20260506190545 7 344 1.6 9.7 0.10 1.85 1.55 97 1006.0
20260506190055 7 345 3.2 14.5 0.08 1.83 1.52 97 1006.1
20260506185545 6 345 3.2 14.5 0.05 1.80 1.47 97 1006.0
20260506185049 6 345 4.8 19.3 0.03 1.78 1.47 97 1006.0
20260506184602 6 344 4.8 19.3 0.05 1.78 1.47 97 1006.0
20260506184045 6 336 6.4 19.3 0.05 1.78 1.47 97 1006.2
20260506183545 6 336 4.8 16.1 0.08 1.78 1.47 97 1006.1
20260506183103 6 336 4.8 14.5 0.08 1.78 1.47 97 1006.2
20260506182544 6 334 6.4 20.9 0.10 1.78 1.47 97 1006.2
20260506182044 6 340 6.4 20.9 0.13 1.78 1.47 97 1006.5
20260506181601 6 340 4.8 12.9 0.13 1.75 1.45 97 1006.4
20260506181043 6 340 4.8 16.1 0.15 1.75 1.45 97 1006.5
20260506180550 6 340 4.8 16.1 0.15 1.75 1.45 97 1006.5
20260506180104 6 341 4.8 16.1 0.15 1.75 1.45 97 1006.6
20260506175547 6 336 3.2 14.5 0.18 1.75 1.45 97 1006.7
20260506175046 6 334 4.8 14.5 0.20 1.75 1.45 97 1006.7
20260506174553 6 334 4.8 14.5 0.18 1.73 1.42 97 1006.7
20260506174042 6 333 4.8 16.1 0.18 1.73 1.42 97 1007.0
20260506173547 6 334 4.8 16.1 0.18 1.70 1.40 97 1006.9
20260506173054 6 333 4.8 16.1 0.18 1.70 1.40 97 1007.1
20260506172544 6 338 4.8 16.1 0.15 1.68 1.37 97 1007.0
20260506172045 6 338 4.8 14.5 0.15 1.65 1.32 96 1007.1
20260506171549 6 339 4.8 14.5 0.13 1.63 1.32 96 1007.1
20260506171045 6 346 4.8 16.1 0.13 1.60 1.30 96 1007.1
20260506170545 6 350 4.8 16.1 0.15 1.60 1.30 96 1007.0
20260506170051 6 351 4.8 16.1 0.13 1.57 1.27 96 1006.9
20260506165543 6 340 4.8 16.1 0.15 1.57 1.27 96 1007.1
20260506165043 6 342 4.8 16.1 0.13 1.55 1.24 96 1007.1
20260506164557 6 334 4.8 12.9 0.15 1.55 1.24 96 1006.9
20260506164042 6 333 4.8 14.5 0.15 1.55 1.24 96 1007.1
20260506163545 6 335 4.8 16.1 0.15 1.52 1.22 96 1007.1
20260506163054 6 333 4.8 20.9 0.18 1.52 1.22 96 1007.2
20260506162545 6 336 6.4 20.9 0.20 1.52 1.22 96 1007.2
20260506162045 6 338 6.4 17.7 0.18 1.47 1.19 96 1007.2
20260506161602 6 340 6.4 17.7 0.20 1.47 1.19 95 1007.3
20260506161043 6 342 6.4 17.7 0.20 1.47 1.17 95 1007.4
20260506160545 6 340 4.8 16.1 0.20 1.45 1.14 95 1007.5
20260506160057 6 340 6.4 17.7 0.20 1.45 1.14 95 1007.4
20260506155544 6 338 6.4 19.3 0.20 1.42 1.12 95 1007.6
20260506155048 6 336 6.4 19.3 0.20 1.42 1.12 95 1007.6
20260506154556 6 342 6.4 19.3 0.20 1.40 1.09 95 1007.5
20260506154046 6 339 6.4 20.9 0.23 1.40 1.09 95 1007.6
20260506153543 6 348 4.8 20.9 0.20 1.37 1.07 95 1007.6
20260506153050 6 326 6.4 20.9 0.20 1.32 1.04 94 1007.6
20260506152545 6 329 4.8 19.3 0.20 1.32 1.02 94 1007.7
20260506152047 6 323 6.4 19.3 0.20 1.32 1.02 94 1007.5
20260506151603 6 335 4.8 19.3 0.20 1.30 0.99 94 1007.6
20260506151043 6 338 4.8 14.5 0.18 1.27 0.97 94 1007.6
20260506150543 6 329 6.4 14.5 0.18 1.24 0.94 94 1007.6
20260506150047 6 328 4.8 16.1 0.18 1.24 0.94 94 1007.4
20260506145543 6 332 4.8 16.1 0.18 1.22 0.91 94 1007.3
20260506145045 6 328 4.8 19.3 0.18 1.22 0.91 94 1007.6
20260506144557 6 342 4.8 19.3 0.18 1.19 0.89 94 1007.2
20260506144043 6 343 3.2 14.5 0.15 1.17 0.86 94 1007.1
20260506143543 6 343 3.2 16.1 0.18 1.17 0.86 94 1007.3
20260506143055 6 346 4.8 16.1 0.15 1.14 0.84 94 1007.2
20260506142543 6 348 4.8 16.1 0.13 1.12 0.81 93 1007.3
20260506142042 6 351 4.8 16.1 0.15 1.12 0.81 93 1007.3
20260506141558 6 348 3.2 19.3 0.13 1.09 0.79 93 1007.3
20260506141044 6 347 4.8 19.3 0.13 1.09 0.79 93 1007.2
20260506140544 6 342 4.8 16.1 0.10 1.07 0.76 93 1007.2
20260506140104 6 339 4.8 17.7 0.13 1.07 0.76 93 1007.3
20260506135543 6 336 4.8 17.7 0.10 1.04 0.74 93 1007.3
20260506135046 6 334 4.8 19.3 0.10 1.04 0.74 93 1007.5
20260506134550 6 339 4.8 19.3 0.08 1.02 0.71 93 1007.2
20260506134043 6 336 6.4 19.3 0.10 1.02 0.71 93 1007.3
20260506133545 6 333 4.8 19.3 0.08 0.99 0.69 93 1007.5
20260506133052 6 336 4.8 19.3 0.10 0.99 0.69 93 1007.5
20260506132544 6 340 6.4 19.3 0.13 0.99 0.69 93 1007.3
20260506132045 7 343 6.4 19.3 0.13 0.97 0.66 93 1007.3
20260506131554 7 339 8.0 19.3 0.15 0.97 0.66 93 1007.3
20260506131044 7 338 4.8 16.1 0.15 0.97 0.66 94 1007.3
20260506130543 7 340 4.8 16.1 0.15 0.97 0.66 94 1007.2
20260506130108 7 339 4.8 17.7 0.15 0.94 0.64 93 1007.4
20260506125544 7 333 6.4 17.7 0.15 0.94 0.64 93 1007.6
20260506125042 7 324 4.8 17.7 0.15 0.94 0.64 93 1007.7
20260506124550 7 328 4.8 16.1 0.18 0.94 0.64 93 1007.7
20260506124042 7 330 4.8 17.7 0.15 0.91 0.61 92 1007.8
20260506123542 7 318 6.4 27.4 0.15 0.91 0.61 92 1007.7
20260506123057 7 284 9.7 29.0 0.13 0.89 0.58 91 1007.9
20260506122542 7 26 12.9 29.0 0.10 0.86 0.56 90 1006.5
20260506122042 7 281 12.9 24.1 0.08 0.84 0.53 90 1008.4
20260506121553 7 309 14.5 22.5 0.05 0.81 0.51 89 1008.3
20260506121045 7 360 6.4 16.1 0.05 0.81 0.51 89 1007.4
20260506120545 7 350 4.8 20.9 0.05 0.81 0.51 89 1007.9
20260506120048 7 352 4.8 20.9 0.05 0.79 0.48 88 1007.6
20260506115545 7 355 6.4 16.1 0.05 0.79 0.48 88 1007.7
20260506115043 8 360 3.2 12.9 0.05 0.79 0.48 89 1007.8
20260506114548 8 360 4.8 16.1 0.03 0.76 0.46 89 1007.9
20260506114044 8 5 4.8 16.1 0.03 0.76 0.46 89 1007.8
20260506113544 8 5 8.0 16.1 0.03 0.76 0.46 89 1007.9
20260506113048 8 14 4.8 12.9 0.03 0.76 0.46 89 1007.9
20260506112546 8 16 4.8 12.9 0.03 0.76 0.46 88 1007.5
20260506112042 8 17 4.8 12.9 0.03 0.76 0.46 87 1007.8
20260506111553 8 18 3.2 9.7 0.03 0.76 0.46 86 1007.7
20260506111045 8 24 3.2 8.0 0.03 0.76 0.46 85 1007.5
20260506110542 8 24 3.2 9.7 0.03 0.76 0.46 84 1007.9
20260506110100 8 24 4.8 16.1 0.00 0.74 0.43 84 1007.6
20260506105545 8 24 6.4 17.7 0.00 0.74 0.43 84 1007.4
20260506105048 8 26 9.7 24.1 0.00 0.74 0.43 83 1007.2
20260506104553 8 30 6.4 24.1 0.00 0.74 0.43 84 1007.0
20260506104044 8 47 9.7 24.1 0.00 0.74 0.43 85 1007.0
20260506103544 8 25 9.7 17.7 0.03 0.74 0.43 86 1007.0
20260506103049 8 355 8.0 19.3 0.03 0.74 0.43 87 1007.3
20260506102546 8 355 8.0 19.3 0.10 0.74 0.43 87 1007.3
20260506102045 8 352 8.0 22.5 0.10 0.74 0.43 87 1007.3
20260506101556 8 352 9.7 22.5 0.10 0.74 0.43 88 1007.0
20260506101045 9 350 9.7 22.5 0.10 0.74 0.43 89 1007.2
20260506100542 9 9 9.7 20.9 0.10 0.74 0.43 89 1007.1
20260506100049 9 12 8.0 22.5 0.10 0.74 0.43 91 1007.0
20260506095547 9 22 9.7 22.5 0.10 0.74 0.43 90 1006.6
20260506095045 10 32 8.0 22.5 0.10 0.74 0.43 90 1006.8
20260506094555 10 19 6.4 22.5 0.10 0.74 0.43 90 1007.3
20260506094044 10 46 9.7 22.5 0.10 0.74 0.43 91 1007.3
20260506093547 10 42 11.3 22.5 0.08 0.71 0.41 91 1006.8
20260506093054 10 53 9.7 17.7 0.05 0.69 0.38 91 1006.7
20260506092545 10 360 4.8 17.7 0.00 0.64 0.33 91 1008.1
20260506092045 10 5 6.4 20.9 0.00 0.64 0.33 91 1007.1
20260506091548 10 20 12.9 20.9 0.00 0.64 0.33 91 1006.7
20260506091047 10 56 6.4 19.3 0.05 0.64 0.33 91 1006.5
20260506090548 10 38 6.4 22.5 0.10 0.64 0.33 91 1007.4
20260506090051 10 45 9.7 22.5 0.10 0.64 0.33 91 1006.9
20260506085544 10 31 6.4 24.1 0.10 0.64 0.33 91 1007.5
20260506085044 10 38 6.4 24.1 0.10 0.64 0.33 91 1007.0
20260506084552 10 43 9.7 24.1 0.10 0.64 0.33 91 1006.8
20260506084044 10 28 9.7 19.3 0.13 0.64 0.33 91 1006.9
20260506083542 11 41 6.4 19.3 0.18 0.64 0.33 91 1007.0
20260506083050 11 30 9.7 19.3 0.20 0.64 0.33 91 1007.3
20260506082547 11 32 8.0 22.5 0.20 0.64 0.33 91 1007.0
20260506082051 11 32 8.0 22.5 0.20 0.64 0.33 91 1007.0
20260506081549 11 35 8.0 19.3 0.20 0.64 0.33 90 1007.0
20260506081045 11 43 6.4 19.3 0.15 0.58 0.28 90 1007.0
20260506080545 11 18 6.4 19.3 0.10 0.53 0.23 90 1007.9
20260506073050 12 23 8.0 19.3 0.00 0.43 0.13 91 1007.4
20260506072542 12 29 6.4 19.3 0.00 0.43 0.13 91 1006.8
20260506072048 12 36 8.0 17.7 0.00 0.43 0.13 92 1006.6
20260506071609 12 40 8.0 17.7 0.00 0.43 0.13 93 1006.8
20260506071042 12 44 4.8 14.5 0.00 0.43 0.13 93 1007.0
20260506070545 12 44 4.8 14.5 0.00 0.43 0.13 94 1006.8
20260506062042 12 92 3.2 9.7 0.03 0.43 0.13 94 1006.9
20260506061547 12 92 1.6 6.4 0.03 0.43 0.13 93 1006.6
20260506061043 12 92 1.6 4.8 0.03 0.43 0.13 93 1006.6
20260506060546 12 0 0.0 3.2 0.03 0.43 0.13 92 1006.8
20260506051048 12 92 4.8 11.3 0.10 0.41 0.10 92 1007.0
20260506050545 12 93 4.8 9.7 0.10 0.41 0.10 92 1006.9
20260506045044 12 94 3.2 6.4 0.08 0.36 0.05 90 1007.6
20260506044549 12 94 1.6 6.4 0.05 0.33 0.03 89 1007.3
20260506044042 12 94 3.2 9.7 0.05 0.33 0.03 89 1007.2
20260506043547 12 94 3.2 9.7 0.05 0.33 0.03 88 1006.8
20260506043050 12 94 4.8 9.7 0.05 0.33 0.03 88 1006.5
20260506042544 12 94 1.6 14.5 0.08 0.33 0.03 89 1006.5
20260506042045 12 0 4.8 14.5 0.10 0.33 0.03 89 1006.3
20260506041600 12 92 8.0 12.9 0.10 0.33 0.03 89 1006.0
20260506041044 12 78 1.6 11.3 0.08 0.30 0.00 90 1006.8
20260506040542 12 78 3.2 14.5 0.08 0.30 0.00 90 1006.7
20260506040049 12 76 6.4 14.5 0.10 0.30 0.00 90 1006.2
20260506035547 12 95 8.0 14.5 0.13 0.30 0.30 90 1006.2
20260506035047 12 5 4.8 8.0 0.10 0.28 0.28 91 1006.5
20260506034555 12 338 3.2 6.4 0.13 0.28 0.28 91 1006.7
20260506034044 12 337 3.2 6.4 0.13 0.28 0.28 90 1006.5
20260506033549 12 336 3.2 6.4 0.13 0.28 0.28 89 1006.6
20260506033055 13 335 1.6 4.8 0.15 0.28 0.28 88 1006.4
20260506032545 13 335 3.2 4.8 0.13 0.23 0.23 87 1006.5
20260506032045 13 335 1.6 4.8 0.13 0.23 0.23 86 1006.4
20260506031558 13 335 3.2 6.4 0.13 0.23 0.23 83 1005.9
20260506031045 13 335 1.6 6.4 0.13 0.23 0.23 81 1006.2
20260506030545 14 335 3.2 4.8 0.13 0.23 0.23 80 1006.2
20260506030046 14 335 1.6 8.0 0.10 0.20 0.20 78 1006.2
20260506025548 15 335 1.6 9.7 0.08 0.18 0.18 77 1006.1
20260506025044 15 335 3.2 12.9 0.08 0.18 0.18 75 1006.1
20260506024552 15 335 4.8 16.1 0.05 0.15 0.15 73 1006.4
20260506024045 15 345 6.4 22.5 0.05 0.15 0.15 72 1005.9
20260506023547 16 345 6.4 22.5 0.05 0.15 0.15 73 1005.8
20260506023053 16 327 8.0 22.5 0.03 0.13 0.13 73 1005.7
20260506022545 16 311 6.4 16.1 0.00 0.10 0.10 73 1005.5
20260506022045 16 126 0.0 9.7 0.00 0.10 0.10 72 1005.4
20260506021555 16 126 0.0 9.7 0.00 0.10 0.10 72 1005.2
20260506021045 16 126 4.8 9.7 0.00 0.10 0.10 71 1005.1
20260506020544 16 126 1.6 4.8 0.00 0.10 0.10 73 1005.0
20260506020048 16 126 1.6 9.7 0.00 0.10 0.10 73 1004.7
20260506015547 16 126 1.6 9.7 0.00 0.10 0.10 73 1004.5
20260506015044 16 126 0.0 6.4 0.00 0.10 0.10 72 1004.7
20260506014557 17 126 1.6 6.4 0.00 0.10 0.10 71 1004.7
20260506014044 17 126 3.2 6.4 0.00 0.10 0.10 70 1004.8
20260506013547 17 126 0.0 3.2 0.00 0.10 0.10 70 1004.8
20260506013049 17 126 1.6 3.2 0.00 0.10 0.10 71 1004.7
20260506012545 17 126 0.0 3.2 0.00 0.10 0.10 71 1005.0
20260506012044 17 126 1.6 6.4 0.00 0.10 0.10 70 1004.8
20260506011547 17 126 3.2 6.4 0.00 0.10 0.10 70 1004.8
20260506011045 17 126 3.2 6.4 0.00 0.10 0.10 70 1004.7
20260506010546 17 0 1.6 6.4 0.00 0.10 0.10 70 1004.0
20260506010050 17 126 3.2 9.7 0.00 0.10 0.10 69 1003.9
20260506005545 17 126 3.2 9.7 0.00 0.10 0.10 70 1003.9
20260506005044 17 126 3.2 11.3 0.00 0.10 0.10 69 1003.9
20260506004550 17 126 3.2 11.3 0.00 0.10 0.10 70 1003.9
20260506004044 17 126 3.2 12.9 0.00 0.10 0.10 70 1003.7
20260506003544 17 126 3.2 16.1 0.00 0.10 0.10 70 1003.7
20260506003053 17 126 6.4 22.5 0.00 0.10 0.10 70 1003.8
20260506002547 17 122 8.0 22.5 0.00 0.10 0.10 70 1003.6
20260506002044 17 124 8.0 22.5 0.00 0.10 0.10 70 1003.6
20260506001614 17 127 6.4 14.5 0.00 0.10 0.10 71 1003.6
20260506001045 17 123 3.2 9.7 0.00 0.10 0.10 71 1003.5
20260506000544 17 123 3.2 11.3 0.00 0.10 0.10 71 1003.4
20260506000054 17 123 4.8 16.1 0.00 0.10 0.10 71 1003.4
20260505235546 17 123 3.2 16.1 0.00 0.10 0.10 70 1003.4
20260505235048 18 142 6.4 12.9 0.00 0.10 0.10 70 1003.1
20260505234552 18 157 6.4 9.7 0.00 0.10 0.10 68 1003.2
20260505234047 18 162 4.8 9.7 0.00 0.10 0.10 67 1003.2
20260505233548 18 165 3.2 9.7 0.00 0.10 0.10 66 1003.1
20260505233054 18 166 1.6 9.7 0.00 0.10 0.10 65 1003.4
20260505232544 18 165 1.6 16.1 0.00 0.10 0.10 65 1003.3
20260505232047 18 165 6.4 16.1 0.00 0.10 0.10 64 1003.3